Location: Bermeries
(50.2863°N, 3.7551°E)
Time: 20:45:47
(UTC+00:00)

Cosmos 1833 - Pass Details

Date: 23 May 2024
Orbit: 835 x 863 km, 70.9° (Epoch: 14 June)

Event Time Altitude Azimuth Distance (km) Brightness Sun altitude
Exits shadow 02:58:20 - 213° (SSW) 2,670 6.2 -6.9°
Reaches altitude 10° 02:58:53 10° 214° (SSW) 2,463 6.0 -6.8°
Maximum altitude 03:04:32 77° 301° (WNW) 867 4.3 -6.2°
Drops below altitude 10° 03:10:12 10° 28° (NNE) 2,463 8.0 -5.5°
Sets 03:12:39 0° 30° (NNE) 3,399 9.0 -5.2°
